Retour au catalogue

STARLINK-4096

ActifCommunicationsVLEO
NORAD 53160·PAYLOAD·🇺🇸 United States

Lancé Jul 17, 2022 depuis Cape Canaveral Space Force Station

Loading…

Prochains Passages (prochaines 24 heures)

TLE

FraisSource: CelesTrak SupGP

Époque: Sep 14, 2026, 21:52 UTC

1 53160C 22083AE  26257.91159722 -.00050414  00000+0 -14894-2 0  2578
2 53160  53.1594  29.5000 0001290  73.4731 160.6892 15.34417753    10

Suivez STARLINK-4096 en temps réel avec AllMySat

Download on the App Store